Temperature
22 21 20 20 19 19 19 19 19 19 18 18 18 18 18 18 17 18 17 17 17 17 17 17 17 17 17 17 17 17 17 17 17 17 18 18 18 17 17 17 17 17 17
22 21 20 20 19 19 19 19 19 19 18 18 18 18 18 17 17 17 17 17 17 17 17 17 17 17 17 17 17 17 17 17 17 17 18 18 18 17 18 17 17 17 17
23 21 20 20 19 19 19 19 19 19 19 18 18 18 17 17 17 17 17 17 17 17 17 17 17 17 17 17 17 17 17 17 17 17 18 18 19 18 18 18 18 17 17
23 21 20 20 19 19 19 19 19 19 19 18 18 18 17 18 18 17 17 17 17 17 17 17 17 17 17 17 17 17 17 17 17 17 17 17 18 18 18 18 18 17 17
23 21 21 20 20 19 19 19 19 19 18 18 18 18 17 18 18 17 17 17 17 17 17 17 17 17 17 17 17 17 17 17 17 17 17 17 17 17 17 18 17 17 17
23 21 20 20 19 19 19 19 19 19 18 18 18 18 17 18 17 17 17 17 17 17 17 17 17 17 17 17 17 17 17 17 17 17 17 17 17 17 17 17 17 17 17
23 22 21 20 19 19 19 19 18 18 18 18 17 17 17 17 17 17 17 17 17 17 17 17 17 17 17 17 17 17 17 17 17 17 17 17 17 17 17 17 17 17 17
23 22 21 20 20 19 19 19 19 18 18 18 18 17 17 17 17 17 17 17 17 17 17 17 17 17 17 17 17 17 17 17 17 17 17 17 17 17 17 17 17 17 17
23 22 21 21 20 19 19 19 19 18 18 18 18 18 18 17 17 17 17 17 17 17 17 17 17 17 17 17 17 17 17 17 17 16 16 16 16 16 16 16 16 16 16
23 23 22 21 20 20 19 19 19 18 18 18 18 18 18 18 17 17 17 17 17 17 17 17 17 17 17 17 17 17 17 16 16 16 16 16 16 16 16 16 16 16 16
24 23 22 21 20 20 19 19 19 18 18 18 18 18 17 17 17 17 17 17 17 17 17 17 17 17 17 17 17 16 16 16 16 16 16 16 16 16 16 16 16 15 15
23 23 22 21 20 20 19 19 18 18 18 18 18 18 18 17 17 17 17 17 17 17 17 17 17 17 16 16 16 16 16 16 16 16 16 15 15 16 15 15 15 15 15
23 22 21 21 20 20 19 19 18 18 18 18 18 18 17 17 17 17 17 17 17 17 16 16 16 16 16 16 16 16 16 16 16 15 15 15 15 15 15 15 15 14 14
22 22 21 20 20 19 19 19 18 18 18 17 17 17 17 17 17 17 17 17 16 16 16 16 16 16 16 15 15 15 15 15 15 15 15 15 15 15 15 14 14 14 14
22 21 21 20 20 19 19 19 18 18 18 17 17 17 17 17 17 17 17 17 16 16 16 16 16 15 15 15 15 15 15 15 15 15 14 14 14 14 14 14 14 14 13
22 21 20 20 19 19 19 18 18 18 17 17 17 17 17 17 17 16 16 16 16 16 16 15 15 15 15 15 15 15 15 14 14 14 14 14 14 14 14 14 14 14 13
22 21 20 20 19 19 19 18 18 18 17 17 17 16 16 16 16 16 16 16 16 15 15 15 15 15 15 15 15 15 14 14 14 14 13 13 13 13 13 13 13 13 13
21 21 20 20 19 19 19 18 18 18 17 17 17 16 16 16 16 16 16 16 15 15 15 15 14 14 15 15 15 15 14 14 14 14 13 13 13 12 12 12 12 12 12
20 20 20 19 19 19 18 18 18 17 17 17 17 16 16 16 16 16 15 15 15 15 14 14 14 14 14 14 14 14 14 14 13 13 13 12 12 12 12 12 11 11 12
20 19 19 19 18 18 18 18 18 17 17 17 16 16 16 16 15 15 15 15 15 14 14 14 14 14 14 14 14 13 13 13 13 13 12 12 12 12 12 11 11 11 11
19 18 18 18 18 18 18 17 17 17 17 16 16 16 16 15 15 15 15 14 14 14 14 13 13 13 13 13 13 13 12 12 12 12 11 12 12 12 11 11 11 11 10
18 18 18 18 17 17 17 17 17 16 16 16 16 15 15 15 15 14 14 14 14 13 13 13 13 12 12 12 13 12 12 12 11 11 11 11 11 11 11 11 11 10 10
17 17 17 17 17 17 17 16 16 16 16 15 15 15 15 15 14 14 14 14 13 13 13 13 12 12 12 12 12 12 12 12 11 11 11 11 11 11 10 10 10 10 10
17 17 16 16 16 16 16 16 16 16 16 15 15 15 14 14 14 13 13 13 13 13 12 12 12 12 12 12 12 11 11 11 11 10 10 10 10 10 10 9 9 9 9
16 16 15 15 15 15 15 15 15 15 15 15 14 14 14 14 14 13 13 13 12 12 12 12 12 12 12 11 11 11 11 10 10 10 10 10 9 10 9 9 9 9 9
15 15 15 15 15 15 15 15 15 15 15 14 14 14 13 13 13 13 13 13 12 12 12 12 12 11 11 11 11 11 10 10 10 9 9 9 9 9 9 9 9 9 9
Wind_Speed
6 6 7 7 8 7 7 7 7 7 6 6 6 5 5 5 5 5 6 7 7 6 6 4 4 4 4 4 5 4 5 4 3 3 3 4 5 4 4 5 5 5 6
6 6 7 8 8 8 7 7 8 8 8 6 5 4 3 4 5 5 5 7 7 7 7 5 5 5 4 5 5 5 5 4 4 4 3 3 4 4 5 5 5 5 5
7 7 7 7 8 7 8 7 7 7 7 6 5 4 3 4 4 5 5 7 7 8 7 6 6 5 6 6 6 6 7 5 5 5 4 3 2 2 3 4 4 4 4
6 6 7 7 7 7 7 7 7 7 7 7 6 6 5 5 4 4 4 5 6 7 7 7 7 6 6 5 7 6 6 6 5 5 5 5 3 3 2 3 4 4 4
6 6 6 6 6 6 6 6 6 7 7 7 7 6 6 5 4 4 5 5 5 6 7 7 6 7 7 6 6 5 7 6 6 5 5 5 5 7 5 4 3 3 2
6 6 5 5 5 5 6 6 7 6 6 6 6 7 6 5 5 5 4 5 4 5 6 6 6 7 6 6 6 6 8 7 7 6 5 5 5 5 5 5 5 4 3
7 7 6 6 5 6 6 6 6 6 6 6 6 6 6 5 5 5 4 4 4 4 4 5 5 5 5 6 5 6 6 6 6 6 5 5 6 5 4 5 5 4 3
7 7 7 6 5 5 5 5 5 5 6 6 6 5 5 4 4 4 3 4 3 3 3 5 5 5 5 5 4 4 5 4 5 6 5 5 5 4 5 5 5 5 4
7 7 6 6 6 5 5 5 5 5 5 5 5 5 4 4 3 3 3 3 3 3 4 4 4 4 4 3 3 3 3 4 4 4 4 5 4 4 5 5 5 5 5
7 7 6 6 5 5 5 5 5 4 4 4 4 4 4 3 3 3 2 2 3 2 3 3 3 3 3 3 3 3 3 3 3 3 3 4 4 3 4 4 4 5 5
7 7 6 5 5 5 5 5 5 5 4 4 3 3 3 3 2 2 2 2 2 2 2 2 2 2 2 2 2 2 2 3 2 3 3 3 3 3 3 3 4 3 3
7 7 7 6 5 5 5 5 5 5 5 4 4 3 3 2 2 2 1 1 1 1 1 1 1 1 1 1 1 1 1 1 1 2 2 3 2 3 3 3 3 2 2
8 8 7 6 5 5 5 5 5 5 5 5 5 4 4 3 2 2 1 1 1 0 1 1 1 1 1 1 1 1 1 1 0 1 1 2 2 2 2 2 2 2 2
8 8 7 6 6 5 5 5 5 5 5 5 5 4 3 3 3 2 2 2 1 1 1 1 1 1 1 1 1 1 1 1 0 0 1 1 1 1 1 1 1 1 1
8 8 7 7 6 6 6 5 5 5 4 4 4 4 3 3 3 3 2 2 2 1 1 1 1 1 1 0 0 1 1 1 1 1 1 2 3 5 3 1 1 1 2
7 7 7 7 7 6 6 5 5 5 4 4 4 3 3 3 3 3 3 3 2 2 2 2 1 1 1 4 3 1 1 1 1 1 1 2 3 4 5 5 5 4 1
5 6 7 7 6 6 6 5 5 5 4 4 3 3 3 3 3 3 3 3 3 3 3 2 2 2 3 4 3 2 1 2 2 2 1 1 3 2 3 4 4 4 4
5 5 6 6 6 6 6 5 5 5 5 4 3 3 3 3 3 3 4 3 3 3 3 3 3 3 4 4 3 1 2 3 3 3 2 2 2 2 1 2 3 3 3
4 4 5 6 6 6 6 6 5 5 5 4 4 4 3 3 4 3 4 4 3 3 2 3 3 3 4 4 2 2 3 3 3 3 3 2 2 3 2 2 3 3 3
4 5 5 6 6 6 6 6 5 4 4 3 3 3 3 3 4 4 3 3 3 3 3 3 3 3 3 3 2 4 2 3 3 3 4 6 4 3 2 2 2 3 3
5 6 6 6 6 6 5 5 4 3 3 3 3 3 3 3 3 4 3 4 4 4 3 4 3 3 3 3 2 4 1 2 2 3 3 4 5 4 4 2 2 2 1
6 6 6 6 6 5 5 5 3 3 3 3 3 3 3 3 3 4 4 4 4 4 4 3 3 2 2 2 3 3 4 4 3 3 3 5 5 5 4 3 3 2 3
6 6 6 6 6 5 4 4 3 3 3 3 3 2 2 3 3 4 4 4 4 3 3 3 3 2 2 3 5 5 4 4 3 4 7 6 4 4 4 4 0 2 1
6 6 6 6 5 4 4 3 3 3 3 3 2 2 2 3 4 3 3 3 3 3 3 3 2 3 3 3 3 4 4 4 4 4 5 4 2 1 3 3 2 1 1
5 5 5 5 4 4 3 3 3 3 3 3 2 2 2 4 4 3 2 2 2 1 1 2 3 2 3 2 2 2 3 2 3 3 3 3 3 3 2 2 1 1 2
4 4 4 4 4 3 3 3 2 2 2 2 2 2 3 3 3 4 4 7 5 6 6 5 3 3 5 6 4 4 5 4 2 2 2 2 2 2 2 2 2 2 1
Wind_Direction
172 174 180 182 181 183 188 191 190 186 193 194 197 200 210 218 220 221 215 215 220 214 220 226 196 227 223 227 225 221 212 221 218 228 225 222 219 221 221 225 229 215 215
168 170 178 182 186 185 189 191 192 191 198 195 193 200 210 222 224 226 216 219 217 216 213 220 222 219 229 227 229 227 237 230 215 235 244 235 209 211 219 215 217 227 219
170 169 178 182 184 186 190 193 193 193 199 195 192 198 202 222 221 215 216 219 220 219 227 219 230 227 234 230 230 228 230 236 229 233 248 258 244 208 200 208 216 219 231
163 162 170 179 184 185 186 189 188 190 192 192 200 206 213 216 223 221 217 216 222 225 221 226 229 236 241 238 239 231 235 238 242 231 239 258 285 264 247 219 200 202 220
160 162 165 172 178 179 181 182 184 188 191 194 201 213 221 222 220 221 217 227 220 221 224 229 232 231 238 240 245 240 239 238 244 242 239 240 239 243 253 259 250 232 225
158 159 159 160 167 171 177 179 183 189 191 197 203 214 220 226 227 226 229 226 221 223 224 230 232 233 236 240 241 239 234 242 250 250 245 243 243 241 243 257 256 246 239
157 158 161 163 166 173 176 178 182 187 190 196 206 213 218 224 229 237 234 238 235 230 228 237 233 233 231 236 241 238 244 242 245 246 244 246 251 257 250 254 262 261 248
154 156 160 163 166 169 174 176 177 181 186 193 201 209 215 225 231 237 253 238 240 244 241 234 231 231 232 237 236 244 244 245 242 247 252 255 257 258 249 250 255 259 255
149 154 158 161 164 167 172 179 174 177 186 192 193 197 205 224 235 235 242 248 249 242 237 239 234 228 232 242 242 242 246 244 242 244 243 250 255 257 260 254 247 253 262
151 152 154 160 161 161 161 169 171 176 184 192 196 188 192 200 219 240 249 260 256 253 246 243 234 228 224 227 233 232 230 231 240 248 255 255 259 261 261 264 258 254 258
151 150 149 151 157 157 158 165 163 164 175 183 185 183 184 185 200 223 242 253 262 247 243 244 233 220 219 224 229 237 233 233 238 245 241 247 265 265 259 259 261 257 247
149 148 146 145 148 152 154 157 164 166 170 171 173 172 176 179 196 207 224 244 254 236 222 219 201 207 199 201 210 237 236 240 245 255 257 262 260 257 269 262 254 250 238
153 149 147 148 147 145 145 150 160 163 167 166 166 169 174 176 189 195 176 132 108 150 177 185 182 180 193 184 183 199 213 226 254 265 264 271 272 270 276 271 257 238 213
157 156 155 154 149 144 145 150 156 157 160 160 160 163 171 177 180 168 153 145 127 105 114 156 151 172 184 168 161 171 182 190 206 313 295 300 294 281 263 242 244 229 184
160 162 161 157 156 153 152 151 152 155 156 156 154 155 158 164 168 157 153 143 132 133 132 123 142 163 165 121 154 164 168 176 152 110 78 63 62 45 26 11 22 208 192
165 164 163 161 162 161 158 156 153 154 157 159 155 148 147 148 148 146 143 137 130 127 119 107 103 101 76 57 27 345 149 155 154 138 119 118 104 101 87 62 53 43 119
162 165 165 165 165 163 159 158 156 152 153 151 145 144 142 136 140 142 141 135 127 119 108 99 91 90 79 70 53 9 119 113 93 96 97 91 88 110 115 124 131 86 52
162 163 160 158 158 155 151 148 145 146 146 146 150 158 158 149 142 147 143 140 131 118 106 95 88 85 82 73 58 359 128 108 99 91 91 92 85 63 68 115 109 98 78
150 149 150 146 139 138 138 141 143 147 149 153 159 164 172 171 156 150 149 142 136 126 117 105 99 96 89 68 30 317 126 116 103 88 70 72 88 36 328 139 126 113 106
120 124 126 125 125 130 137 141 144 147 155 162 165 163 169 167 161 152 148 141 142 139 131 107 98 99 98 79 21 316 130 115 108 98 90 64 52 35 354 145 133 124 107
106 115 116 113 115 123 131 134 135 143 146 148 147 148 155 159 154 140 143 145 140 128 118 111 105 99 93 108 59 343 27 121 118 109 98 80 73 56 33 24 73 71 100
98 107 110 107 107 113 121 121 119 120 132 144 149 151 153 155 140 142 144 145 142 142 141 137 128 118 111 89 100 48 24 12 89 88 90 90 87 79 61 73 59 313 271
86 92 99 100 95 93 102 106 98 106 123 133 137 140 141 134 136 146 145 149 157 165 165 166 165 147 131 114 112 106 79 43 74 77 72 86 115 135 116 105 258 265 164
86 91 94 92 85 78 79 82 87 99 113 118 126 132 137 129 128 138 144 151 163 180 180 176 177 154 143 131 132 132 130 131 118 106 115 137 139 114 88 145 181 143 73
83 87 94 95 90 83 81 82 93 111 116 124 141 151 149 139 134 120 92 132 99 98 191 179 175 169 159 116 87 130 137 132 116 133 143 149 158 156 152 149 132 146 163
90 94 96 95 90 87 84 81 93 113 129 141 150 146 143 144 143 135 106 59 67 65 51 34 33 86 87 112 108 93 89 88 115 180 152 163 182 178 176 180 170 178 185
Height
1545 1546 1547 1548 1549 1550 1551 1553 1554 1555 1557 1558 1559 1561 1562 1564 1565 1566 1567 1568 1569 1571 1572 1574 1574 1574 1575 1576 1577 1577 1578 1579 1579 1580 1580 1580 1580 1580 1580 1581 1581 1582 1582
1544 1545 1546 1547 1548 1549 1550 1551 1552 1553 1555 1556 1557 1559 1561 1562 1563 1564 1565 1566 1567 1569 1571 1571 1572 1573 1573 1574 1574 1575 1576 1577 1578 1578 1578 1578 1579 1578 1578 1578 1579 1579 1580
1542 1544 1545 1546 1546 1547 1548 1549 1550 1552 1553 1554 1556 1557 1558 1560 1562 1562 1563 1564 1566 1567 1568 1569 1570 1571 1572 1572 1572 1573 1574 1575 1576 1576 1577 1576 1575 1576 1576 1576 1576 1576 1577
1541 1542 1544 1545 1545 1546 1547 1548 1549 1550 1552 1553 1554 1556 1557 1559 1560 1561 1562 1563 1564 1565 1566 1567 1568 1568 1569 1570 1570 1571 1571 1572 1573 1573 1573 1574 1574 1575 1574 1574 1574 1574 1574
1540 1541 1542 1543 1545 1546 1546 1547 1548 1549 1550 1551 1553 1554 1556 1557 1558 1559 1560 1561 1562 1562 1563 1564 1565 1565 1566 1567 1567 1568 1568 1569 1570 1571 1571 1571 1571 1572 1572 1572 1572 1572 1572
1539 1540 1542 1543 1544 1545 1546 1546 1547 1548 1549 1550 1551 1552 1554 1555 1556 1557 1558 1558 1559 1560 1561 1561 1562 1563 1564 1564 1564 1565 1565 1566 1567 1567 1568 1568 1569 1569 1569 1569 1569 1569 1569
1538 1539 1541 1542 1543 1544 1545 1545 1546 1547 1548 1549 1550 1551 1552 1553 1554 1555 1556 1556 1557 1558 1558 1559 1559 1560 1560 1561 1561 1561 1562 1563 1563 1564 1565 1565 1565 1566 1566 1566 1566 1566 1566
1537 1539 1540 1541 1542 1543 1544 1545 1546 1547 1547 1548 1549 1550 1551 1552 1553 1553 1554 1555 1555 1556 1556 1556 1556 1557 1558 1558 1559 1559 1559 1560 1560 1561 1561 1561 1562 1562 1563 1563 1563 1562 1562
1536 1538 1540 1541 1542 1543 1544 1545 1545 1546 1547 1548 1548 1549 1549 1550 1551 1552 1552 1553 1553 1553 1553 1553 1554 1555 1555 1555 1556 1556 1556 1557 1557 1557 1558 1558 1558 1559 1559 1559 1559 1560 1559
1536 1538 1540 1541 1542 1543 1543 1544 1545 1545 1546 1547 1548 1549 1549 1549 1550 1550 1551 1551 1551 1551 1551 1551 1552 1552 1553 1553 1553 1553 1554 1554 1554 1554 1554 1555 1555 1555 1555 1556 1556 1556 1556
1535 1537 1539 1540 1542 1542 1543 1543 1544 1544 1546 1547 1547 1548 1548 1549 1549 1549 1549 1549 1549 1549 1549 1549 1550 1550 1550 1551 1551 1551 1551 1551 1551 1551 1552 1551 1551 1552 1552 1552 1552 1552 1552
1535 1537 1539 1540 1541 1541 1542 1543 1543 1544 1545 1545 1546 1547 1547 1547 1548 1548 1548 1548 1547 1547 1547 1548 1548 1548 1548 1548 1549 1549 1549 1549 1549 1549 1549 1549 1549 1549 1549 1549 1549 1549 1549
1535 1537 1538 1539 1540 1541 1541 1542 1543 1544 1544 1544 1545 1546 1546 1546 1547 1547 1547 1546 1546 1546 1546 1546 1547 1547 1547 1547 1547 1547 1547 1547 1547 1547 1546 1546 1546 1546 1546 1545 1546 1546 1546
1534 1535 1537 1538 1539 1540 1541 1541 1542 1543 1543 1544 1544 1545 1545 1545 1546 1545 1545 1545 1545 1545 1545 1545 1545 1545 1545 1545 1545 1545 1545 1545 1545 1544 1544 1544 1543 1543 1543 1543 1543 1543 1544
1533 1534 1536 1537 1538 1539 1540 1540 1541 1542 1542 1543 1544 1544 1544 1544 1544 1544 1544 1544 1544 1544 1544 1544 1544 1544 1544 1544 1544 1544 1544 1543 1543 1542 1542 1541 1541 1541 1541 1541 1541 1541 1542
1532 1534 1535 1536 1537 1538 1539 1540 1540 1541 1542 1542 1543 1543 1543 1543 1543 1543 1543 1543 1543 1543 1543 1543 1543 1543 1543 1542 1542 1542 1542 1542 1541 1541 1540 1539 1539 1539 1539 1539 1539 1540 1540
1531 1532 1534 1535 1536 1537 1538 1539 1539 1540 1541 1541 1542 1542 1542 1542 1543 1543 1543 1543 1542 1542 1542 1542 1542 1541 1541 1541 1541 1541 1541 1540 1539 1539 1539 1539 1538 1538 1537 1537 1538 1538 1538
1529 1531 1532 1533 1534 1535 1537 1537 1538 1538 1539 1539 1540 1541 1541 1541 1541 1541 1541 1541 1542 1542 1541 1541 1541 1540 1540 1540 1540 1540 1540 1539 1538 1538 1538 1537 1537 1536 1537 1537 1537 1537 1537
1528 1529 1531 1532 1533 1534 1535 1536 1537 1538 1538 1538 1538 1539 1539 1539 1539 1539 1539 1540 1540 1541 1541 1540 1540 1539 1539 1539 1539 1539 1539 1538 1537 1537 1537 1536 1536 1536 1536 1536 1536 1537 1537
1527 1528 1529 1531 1531 1532 1534 1535 1536 1537 1537 1537 1537 1537 1538 1538 1538 1537 1538 1538 1539 1540 1540 1539 1539 1539 1539 1539 1538 1538 1538 1537 1537 1536 1536 1535 1535 1535 1536 1536 1536 1537 1537
1527 1528 1528 1529 1530 1531 1533 1534 1535 1535 1536 1536 1536 1536 1536 1536 1536 1536 1537 1537 1537 1538 1538 1538 1538 1538 1538 1538 1538 1537 1537 1537 1537 1536 1536 1535 1535 1535 1535 1535 1536 1536 1536
1527 1528 1528 1529 1530 1531 1532 1533 1533 1533 1534 1534 1535 1535 1535 1535 1535 1535 1535 1535 1536 1536 1537 1537 1537 1537 1537 1537 1536 1536 1536 1536 1536 1536 1536 1535 1535 1535 1535 1535 1535 1535 1536
1527 1528 1528 1529 1530 1531 1531 1532 1532 1533 1533 1533 1533 1534 1534 1534 1533 1533 1533 1534 1534 1535 1536 1536 1536 1536 1536 1535 1535 1535 1535 1535 1535 1535 1535 1535 1535 1534 1535 1534 1534 1535 1536
1528 1529 1529 1530 1530 1531 1531 1532 1531 1531 1531 1532 1532 1532 1532 1532 1532 1531 1532 1533 1533 1534 1534 1535 1534 1534 1534 1534 1533 1533 1534 1534 1534 1534 1534 1534 1534 1534 1534 1534 1534 1535 1535
1528 1529 1529 1530 1530 1531 1531 1531 1531 1531 1530 1530 1530 1530 1531 1530 1530 1531 1531 1531 1531 1532 1533 1533 1533 1533 1533 1533 1533 1533 1533 1533 1534 1534 1534 1534 1534 1534 1534 1534 1534 1534 1534
1529 1529 1530 1530 1530 1530 1530 1530 1530 1530 1529 1529 1528 1529 1529 1529 1529 1529 1529 1529 1530 1530 1531 1531 1531 1531 1531 1531 1531 1531 1531 1531 1532 1533 1533 1533 1533 1533 1533 1533 1533 1533 1533